Regional Weather Roundup
Issued by NWS Charleston, SC

Current Version | Previous Version | Text Only | Print | Product List | Glossary Off
Versions: 1 2 3 4 5 6 7 8 9 10 11 12 13 14 15 16 17 18 19 20 21 22 23 24 25 26 27 28 29 30 31 32 33 34 35 36 37 38 39 40 41 42 43 44 45 46 47 48 49 50

000
ASUS42 KCHS 172327
RWRCHS

Regional Weather Roundup
National Weather Service Charleston SC
600 PM EST WED JAN 17 2018

NOTE: "fair" indicates few or no clouds below 12,000 feet with no
significant weather and/or obstructions to visibility.

Not all stations are quality controlled. Use data with caution,
especially dewpoint observations.

SCZ027-030-031-034>040-042>050-180000-
...Southeast South Carolina...

CITY           SKY/WX    TMP DP  RH WIND       PRES   REMARKS
N Charleston   CLOUDY    39  33  79 NW16G23   30.19R WCI  30
Waterfront Prk NOT AVBL
Mount Pleasant CLOUDY    39  34  81 W14       30.19R WCI  31
Johns Island   MOCLDY    39  32  75 W16       30.20R WCI  30
Pinopolis        N/A     37  36  93 W15       30.10R WCI  28
Moncks Corner  CLOUDY    36  32  87 NW3       30.20R
Summerville    CLOUDY    36  32  87 NW9G18    30.22R WCI  29
Beaufort MCAS  FAIR      37  29  72 NW9       30.24R WCI  30
Beaufort Arpt  FAIR      36  28  75 NW12      30.23R WCI  27
Hilton Head Is CLEAR     37  27  65 NW10G18   30.23R WCI  30
Walterboro     CLOUDY    36  30  80 NW10      30.25R WCI  28
Allendale      CLOUDY    36  27  69 VRB3      30.24R

...Southern Midlands and Pee Dee...

CITY           SKY/WX    TMP DP  RH WIND       PRES   REMARKS
Georgetown     CLOUDY    39  39 100 W13G20    30.16R WCI  32
Kingstree      LGT RAIN  36  34  93 W12G18    30.19R WCI  27
Orangeburg     LGT RAIN  35  31  85 NW7G18    30.22R WCI  29
Barnwell         N/A     36  30  80 NW10G18   30.26R WCI  28
Aiken          CLOUDY    32  30  93 NW12G20   30.29R WCI  23
Manning        DRIZZLE   36  32  87 MISG      30.20R
Columbia       CLOUDY    34  29  82 VRB7G17   30.25R WCI  28
Sumter         CLOUDY    33  30  86 N10       30.19R WCI  25
Florence       LGT SNOW  34  31  88 N18G24    30.19R FOG     WCI  23
Myrtle Beach   LGT RAIN  39  39 100 NW9       30.15R FOG     WCI  33
N Myrtle Beach LGT RAIN  40  38  93 NW6       30.12R FOG     WCI  36

$$

GAZ063-065-086>088-099>101-113>116-118-119-134>141-150-180000-
...Southeast Georgia...

CITY           SKY/WX    TMP DP  RH WIND       PRES   REMARKS
Savannah Arpt  FAIR      39  24  55 NW10      30.24R WCI  32
Hunter AAF     FAIR      39  23  53 W12       30.21R WCI  32
Fort Stewart   FAIR      39  19  44 W13       30.24R WCI  31
Statesboro     FAIR      35  10  34 NW14G20   30.28R WCI  26
Sylvania       FAIR      35  18  51 NW10      30.28R WCI  27
Claxton        FAIR      37  16  43 W15       30.29R WCI  27

...CSRA, Central and far Southeast Georgia...

CITY           SKY/WX    TMP DP  RH WIND       PRES   REMARKS
Thomson        CLOUDY    30  13  47 N7        30.35R WCI  24
Augusta-Bush   CLOUDY    35  17  47 W14       30.28R WCI  26
Augusta-Daniel CLOUDY    35  16  45 W10       30.27R WCI  27
Swainsboro     FAIR      32  14  47 NW13G22   30.32R WCI  22
Vidalia        FAIR      34  14  44 NW9G17    30.31R WCI  26
Eastman        FAIR      31  -4  22 NW7       30.39R WCI  24
Hazlehurst     FAIR      33   1  25 NW3       30.32R
Alma           FAIR      36  12  37 W16G26    30.31R WCI  26
Waycross       FAIR      36  11  36 NW16G22   30.31R WCI  26
Jesup          FAIR      39  16  38 NW16      30.28R WCI  30
Baxley         FAIR      32  14  47 W9        30.31R WCI  24
Brunswick      FAIR      37  19  48 W9        30.28R WCI  31
Saint Simons   FAIR      41  27  57 W9        30.25R

$$

SCZ027-028-034-036>038-045-046-048>050-GAZ119-141-180000-
...Lake and Supplemental Coastal Observations...

STATION/POSITION TIME  TEMP    WIND        PRES    WAVE   SWELL
                       AIR SEA DIR/SP/G            HT/PER HT/PER/DIR
                 (UTC) (F)     (DEG/KT/KT) (MB)    (FT/S) (FT/S/D)
Winyah Bay       2230   43     310/  6     1020.0S
Lake Murray      2320   32     330/  4/ 10 1023.7
ACE Basin NERRS  2245   37     300/  5     1023.0R
Fort Pulaski     2300   41 47  310/ 13/ 18 1023.8
Sapelo Island    2300   42     290/ 10     1024.0

$$

ANZ835-935-AMZ111-154-330-350-352-354-370-450-454-472-180000-
...C-MAN and Buoy Observations...

STATION/POSITION TIME  TEMP    WIND        PRES    WAVE   SWELL
                       AIR SEA DIR/SP/G            HT/PER HT/PER/DIR
                 (UTC) (F)     (DEG/KT/KT) (MB)    (FT/S) (FT/S/D)
Buoy 41004       2310   50 69  300/ 19/ 27 1020.0
Buoy 41008       2250   43 52  290/ 19/ 25 1023.1R   4/ 4   2/ 70/11
Folly Beach CMAN 2300   40     290/ 10/ 16 1022.5R
Capers Nearshore 2308   38 48  300/ 19/ 27 1020.9R
Fripp Nearshore  2308   36 47  310/ 19/ 27 1022.0R


STATION/POSITION TIME  TEMP    WIND        PRES    WAVE   SWELL
                       AIR SEA DIR/SP/G            HT/PER HT/PER/DIR
                 (UTC) (F)     (DEG/KT/KT) (MB)    (FT/S) (FT/S/D)
5E St. Marys GA  2230      50                N/A     4/11   2/100/11
Frying Pan Buoy  2310   58 68   50/ 16/ 19 1016.4
Buoy 41025       2310   46 72  360/ 27/ 33 1019.0
Cape Lookout NC  2300           10/ 20/ 24 1019.4F
Buoy 41002       2250   63 70  310/ 27/ 31 1016.5R   8/11   5/ 70/11
Buoy 41010       NOT AVBL
St Augustine FL  2300   47 51  310/ 12/ 16 1024.3R


$$




USA.gov is the U.S. government's official web portal to all federal, state and local government web resources and services.